This is the latest recevied weather packets stored in our database for station/object KU9TRY. If no packets are shown the sender has not sent any weather packets the latest 10 day(s).
| Time | Temp. | Humidity | Pressure | Rain* | Wind** | Luminosity | Snow |
|---|---|---|---|---|---|---|---|
| 1777677934 | 16.67° C | 43% | 1014.2 hPa | 0 mm | - | 46 W/m² | - |
| 1777677632 | 16.67° C | 42% | 1014.2 hPa | 0 mm | - | 53 W/m² | - |
| 1777677329 | 16.11° C | 46% | 1014.3 hPa | 0 mm | - | 52 W/m² | - |
| 1777677027 | 16.67° C | 55% | 1014.2 hPa | 0 mm | - | 50 W/m² | - |
| 1777676726 | 17.22° C | 43% | 1014.2 hPa | 0 mm | - | 53 W/m² | - |
| 1777676423 | 17.22° C | 44% | 1014.3 hPa | 0 mm | - | 65 W/m² | - |
| 1777676121 | 17.22° C | 44% | 1014 hPa | 0 mm | - | 83 W/m² | - |
| 1777675817 | 17.22° C | 42% | 1013.9 hPa | 0 mm | - | 81 W/m² | - |
| 1777675514 | 17.22° C | 41% | 1013.8 hPa | 0 mm | - | 81 W/m² | - |
| 1777675211 | 17.22° C | 42% | 1013.6 hPa | 0 mm | - | 90 W/m² | - |
| 1777674907 | 17.22° C | 43% | 1013.7 hPa | 0 mm | - | 98 W/m² | - |
| 1777674604 | 17.78° C | 44% | 1013.7 hPa | 0 mm | - | 98 W/m² | - |
| 1777674301 | 17.78° C | 44% | 1013.6 hPa | 0 mm | - | 100 W/m² | - |
| 1777673997 | 17.78° C | 44% | 1013.8 hPa | 0 mm | - | 101 W/m² | - |
| 1777673694 | 17.78° C | 43% | 1013.7 hPa | 0 mm | - | 97 W/m² | - |
| 1777673392 | 17.78° C | 43% | 1013.7 hPa | 0 mm | - | 119 W/m² | - |
| 1777673089 | 17.78° C | 44% | 1013.9 hPa | 0 mm | - | 130 W/m² | - |
| 1777672785 | 17.78° C | 42% | 1013.8 hPa | 0 mm | - | 117 W/m² | - |
| 1777672482 | 18.33° C | 44% | 1013.7 hPa | 0 mm | - | 99 W/m² | - |
| 1777672177 | 18.33° C | 43% | 1014 hPa | 0 mm | - | 115 W/m² | - |
| 1777671873 | 18.33° C | 45% | 1013.9 hPa | 0 mm | - | 136 W/m² | - |
| 1777671568 | 18.33° C | 46% | 1014 hPa | 0 mm | - | 154 W/m² | - |
| 1777671266 | 18.33° C | 45% | 1013.9 hPa | 0 mm | - | 145 W/m² | - |
| 1777670961 | 18.89° C | 47% | 1014 hPa | 0 mm | - | 148 W/m² | - |
| 1777670658 | 18.89° C | 44% | 1014.1 hPa | 0 mm | - | 155 W/m² | - |
* Rain latest hour (hover to see other rain measurements)
** Current wind speed in m/s (hover to see current wind gust speed)